Flag for U.S.A. Weather past 2 weeks in Eau Claire, Wisconsin, U.S.A.

Now
75 °F

Scattered clouds.


Feels Like: 77 °F
Forecast: 53 / 74 °F
Wind: 5 mph from North

Location: Eau Claire County Airport

Current Time: Jul 28, 2014 at 3:35:54 PM

Latest Report: Jul 28, 2014 at 2:56 PM


Visibility: 10 mi

Pressure: 30.13 "Hg

Humidity: 40%

Dew point: 49 °F

Location of Eau ClaireLocation

Historic Weather in Eau Claire — Graph

°F

Eau Claire temperature yesterday

Maximum temperature yesterday: 76 °F (at 2:56 PM)
Minimum temperature yesterday: 56 °F (at 11:56 PM)
Average temperature yesterday: 66 °F

Past Weeks' High & Low Weather Summary

 TemperatureHumidityPressure
High90 °F (Jul 21, 3:56 PM)100% (Jul 16, 2:56 AM)30.22 "Hg (Jul 16, 2:56 AM)
Low47 °F (Jul 16, 4:56 AM)33% (Jul 16, 12:56 PM)29.72 "Hg (Jul 27, 4:56 AM)
Average69 °F70%29.96 "Hg
* Reported Jul 13 1:56 PM — Jul 28 1:56 PM, Eau Claire, Weather by CustomWeather, © 2014

Note: Actual official high and low records may vary slightly from our data, if they occured in-between our weather recording intervals... More about our weather records

Advertising

Eau Claire weather history for previous 24 hours

 ConditionsComfort  
Time TempWeatherWind HumidityBarometerVisibility
1:56 PM
Jul 28
72 °FMore clouds than sun.7 mph44%30.14 "Hg10 mi
12:56 PM72 °FPartly sunny.14 mph40%30.15 "Hg10 mi
11:56 AM72 °FOvercast.9 mph48%30.16 "Hg10 mi
10:56 AM71 °FOvercast.7 mph49%30.17 "Hg10 mi
9:56 AM69 °FOvercast.6 mph53%30.17 "Hg10 mi
8:56 AM66 °FPartly sunny.3 mph68%30.16 "Hg10 mi
7:56 AM61 °FPartly sunny.3 mph83%30.16 "Hg10 mi
6:56 AM58 °FOvercast.No wind93%30.15 "Hg10 mi
5:56 AM57 °FOvercast.No wind90%30.14 "Hg10 mi
4:56 AM57 °FOvercast.No wind90%30.13 "Hg10 mi
3:56 AM57 °FPassing clouds.No wind90%30.11 "Hg10 mi
2:56 AM59 °FOvercast.No wind84%30.10 "Hg10 mi
1:56 AM59 °FOvercast.5 mph81%30.10 "Hg10 mi
12:56 AM57 °FOvercast.6 mph87%30.09 "Hg10 mi
11:56 PM
Jul 27
56 °FClear.7 mph87%30.09 "Hg10 mi
10:56 PM57 °FClear.6 mph83%30.08 "Hg10 mi
9:56 PM59 °FClear.5 mph78%30.06 "Hg10 mi
8:56 PM62 °FSunny.8 mph70%30.03 "Hg10 mi
7:56 PM65 °FPartly sunny.10 mph68%30.01 "Hg10 mi
6:56 PM68 °FPartly sunny.16 mph65%29.97 "Hg10 mi
5:56 PM72 °FPartly sunny.16 mph61%29.95 "Hg10 mi
4:56 PM73 °FScattered clouds.15 mph62%29.91 "Hg10 mi
3:56 PM74 °FBroken clouds.12 mph62%29.88 "Hg10 mi
Weather by CustomWeather, © 2014

See weather overviewHow to use our weather pages